Vorticity
16 11 1 6 6 3 11 10 7 2 -5 18 3 10 7 3 12 17 8 25 12 -4 14 12 5 1 1 1 2 5 7 4 3 3 4 4 5 6 7 7 6 8 8 7 6 6 4 2 3
9 7 5 6 7 12 9 11 -2 11 13 3 6 8 7 -6 21 17 17 -12 -5 23 5 2 4 5 2 2 4 7 6 4 3 4 5 4 6 6 7 7 7 8 7 9 8 9 9 4 3
9 10 1 5 11 26 5 9 2 7 3 3 8 2 5 1 16 15 11 -4 17 1 3 2 3 2 2 2 5 6 5 5 5 5 6 6 6 6 5 5 5 6 7 7 8 7 5 8 4
12 4 -7 28 -6 1 10 14 2 4 5 3 6 9 8 10 28 8 11 1 6 5 5 2 3 1 2 3 5 3 3 4 5 6 6 7 6 6 5 6 6 4 4 5 3 3 5 6 5
9 5 8 -42 15 9 10 7 4 8 7 8 -2 1 8 6 18 10 10 1 1 4 6 2 2 2 2 4 4 3 3 4 6 7 7 5 6 7 6 5 4 3 3 3 3 4 5 6 9
3 11 10 33 6 8 8 6 0 7 5 8 23 17 13 9 12 14 13 5 2 3 4 2 2 2 3 3 4 3 3 5 7 6 5 4 5 7 8 7 5 5 5 4 8 4 5 6 7
7 -4 4 -0 18 -3 7 4 12 8 8 11 15 15 20 20 8 11 9 1 4 4 4 2 1 3 4 3 3 3 4 4 7 4 5 5 6 5 5 5 5 5 5 6 4 6 9 8 7
-3 18 -6 -8 19 7 9 8 10 12 12 8 -12 18 9 7 13 11 3 4 6 6 8 2 1 3 3 2 3 3 3 5 4 3 4 5 6 5 6 6 5 4 5 5 2 7 8 12 15
-0 0 19 9 11 10 5 9 7 15 7 3 12 16 12 13 10 6 6 2 -4 2 7 2 1 3 3 3 2 3 2 4 5 6 7 4 4 -1 9 13 8 2 5 4 7 7 13 8 4
3 20 11 6 4 21 2 9 17 8 5 5 17 -2 18 12 7 2 5 2 0 4 5 4 3 3 3 2 2 3 3 3 4 1 3 13 2 17 4 6 6 5 4 6 5 18 8 2 3
10 -8 2 5 12 3 8 -1 9 10 5 5 -3 10 19 10 7 7 7 1 1 4 4 4 8 3 2 5 2 2 2 1 2 8 -0 11 7 3 14 6 8 8 10 2 -2 7 4 16 -2
-8 15 -3 10 3 10 8 3 3 3 16 9 -3 12 12 9 14 11 9 6 4 3 4 5 8 4 2 9 3 1 2 3 1 4 4 7 -4 7 7 0 6 3 -3 11 -5 -0 19 -10 -6
6 1 11 -6 -2 -2 11 6 10 1 10 11 12 11 10 7 15 5 8 11 3 6 5 5 5 5 4 2 4 4 2 3 4 3 4 9 10 8 0 4 3 10 10 2 5 6 7 12 6
8 2 3 7 2 4 4 8 -2 6 10 5 7 18 10 11 10 7 6 6 5 7 6 5 6 5 4 4 4 3 3 8 4 4 4 5 7 8 6 5 2 4 4 4 4 8 14 13 11
-10 12 12 1 4 8 10 6 3 16 6 7 -6 14 13 14 7 5 6 7 6 8 6 5 6 5 4 4 4 3 3 3 4 3 4 4 6 5 4 4 6 6 11 9 11 6 -11 11 -1
5 4 4 8 2 1 1 8 9 5 8 6 4 -2 12 11 7 6 5 7 6 4 4 5 6 5 4 4 4 3 3 3 4 3 5 6 7 5 5 2 10 -3 11 12 -1 13 17 3 19
14 -3 3 6 6 -9 2 4 29 11 4 10 7 5 -1 14 13 4 6 9 6 5 7 6 5 5 5 4 4 3 3 4 4 4 5 7 9 6 5 -2 17 9 12 7 12 3 1 14 -0
10 9 11 2 10 11 6 0 3 12 1 11 10 8 4 -4 14 10 7 8 7 7 8 7 6 5 5 4 4 4 3 5 5 5 6 8 7 7 7 6 7 6 8 6 10 5 3 11 17
3 1 0 21 -2 6 2 7 -0 -4 5 13 9 8 8 6 2 4 14 5 9 7 7 8 7 6 5 4 5 3 4 5 6 6 8 7 10 6 7 7 7 10 4 5 5 7 9 9 12
4 6 5 5 7 -6 11 6 5 2 5 13 10 10 9 7 8 3 11 8 6 7 10 7 7 6 5 5 5 4 4 4 7 6 8 8 5 7 6 4 8 8 1 4 9 29 9 10 11
5 4 5 8 4 20 5 9 8 10 12 11 11 6 12 8 6 3 -3 20 12 7 8 10 7 6 5 5 5 5 5 6 8 6 6 6 8 9 10 9 1 9 6 5 13 10 9 11 8
8 7 4 3 2 9 3 12 5 0 3 8 11 7 8 11 7 -1 10 -2 23 11 12 10 9 7 6 5 5 7 7 6 8 7 6 7 6 7 7 6 4 12 9 5 4 7 9 10 10
10 14 14 4 3 1 2 -8 11 9 11 2 7 10 8 10 9 8 -6 13 12 16 12 11 11 7 6 7 7 8 6 5 6 7 7 7 6 5 5 7 5 15 7 4 7 11 10 7 8
12 13 9 15 10 27 9 -5 12 4 0 19 10 6 6 11 12 8 3 -5 8 18 8 14 9 8 5 8 8 8 6 6 6 7 7 8 6 11 9 9 12 12 7 0 9 5 4 5 4
12 -0 25 19 32 -2 22 5 -12 13 0 1 14 9 6 9 16 11 8 -1 4 10 13 20 12 9 7 6 7 7 5 6 6 6 6 5 5 8 8 8 14 13 8 1 2 2 1 2 2
5 7 -31 15 18 19 11 12 13 5 -14 21 15 10 9 7 18 9 10 2 -5 4 14 9 14 8 5 5 6 8 7 5 3 4 3 6 6 7 5 9 11 15 9 1 3 1 0 1 1
20 8 0 -33 19 -4 24 12 10 12 23 -8 29 13 11 4 11 16 12 3 2 9 3 11 20 10 7 5 8 5 12 7 4 4 3 5 7 7 9 5 13 15 12 5 2 1 1 -0 0
-13 22 -1 -4 11 9 18 31 -3 11 9 19 -3 22 10 4 12 13 12 5 0 14 2 17 6 10 21 11 9 8 2 16 7 4 6 5 5 6 4 10 8 17 11 8 5 2 1 1 1
12 8 8 -1 -19 -5 2 35 25 23 26 20 16 7 -7 15 6 15 8 6 5 6 6 2 3 9 10 14 18 14 11 10 6 4 8 7 5 6 4 7 8 14 12 9 6 7 0 2 2
12 -4 13 -18 33 2 -32 11 12 45 25 16 14 19 16 7 13 13 9 12 13 9 8 2 7 0 6 3 3 13 15 11 5 6 6 5 5 4 11 4 10 8 14 9 6 4 2 1 2
Height
3154 3153 3153 3153 3157 3152 3150 3151 3152 3152 3152 3154 3154 3153 3155 3156 3157 3161 3163 3165 3169 3174 3176 3179 3183 3187 3189 3191 3193 3195 3196 3197 3198 3199 3200 3201 3202 3203 3202 3203 3203 3203 3203 3203 3203 3204 3203 3203 3202
3155 3154 3154 3153 3150 3151 3151 3152 3151 3153 3153 3154 3156 3158 3158 3157 3157 3157 3162 3168 3173 3176 3179 3183 3186 3189 3192 3193 3195 3197 3198 3199 3200 3201 3203 3204 3204 3204 3205 3205 3205 3205 3205 3205 3206 3205 3205 3204 3203
3156 3155 3155 3154 3151 3148 3151 3153 3154 3155 3156 3155 3157 3157 3157 3159 3160 3162 3166 3169 3173 3178 3181 3185 3188 3191 3193 3195 3197 3199 3200 3201 3202 3203 3205 3206 3206 3207 3207 3207 3207 3207 3207 3207 3207 3207 3207 3206 3205
3156 3156 3156 3155 3149 3150 3152 3153 3156 3156 3158 3159 3157 3157 3159 3161 3161 3164 3168 3172 3176 3180 3184 3187 3190 3192 3195 3198 3199 3201 3202 3203 3204 3205 3206 3207 3208 3209 3210 3210 3210 3210 3210 3210 3209 3209 3208 3207 3207
3154 3156 3154 3149 3153 3153 3155 3157 3158 3156 3160 3160 3158 3158 3159 3161 3164 3168 3171 3174 3178 3182 3186 3189 3191 3194 3197 3199 3201 3202 3204 3205 3206 3207 3209 3210 3211 3212 3212 3212 3212 3212 3212 3211 3211 3210 3209 3209 3208
3155 3156 3156 3150 3153 3156 3157 3159 3158 3159 3161 3158 3156 3156 3159 3162 3165 3169 3173 3176 3181 3185 3187 3191 3193 3196 3199 3201 3202 3204 3206 3207 3208 3210 3211 3212 3213 3213 3214 3214 3214 3214 3213 3213 3212 3211 3211 3209 3208
3152 3149 3149 3152 3153 3156 3159 3160 3159 3161 3162 3162 3158 3156 3158 3162 3167 3172 3175 3179 3183 3187 3189 3193 3196 3198 3200 3203 3204 3206 3208 3209 3210 3212 3213 3214 3214 3215 3215 3216 3216 3216 3215 3215 3213 3213 3211 3210 3209
3157 3153 3151 3152 3157 3155 3161 3161 3162 3162 3162 3161 3161 3160 3160 3163 3168 3173 3177 3181 3185 3192 3192 3195 3197 3200 3202 3204 3205 3208 3209 3210 3212 3213 3214 3215 3216 3217 3217 3217 3217 3217 3217 3216 3215 3214 3213 3212 3210
3157 3158 3154 3154 3156 3156 3160 3162 3162 3163 3161 3164 3165 3162 3164 3166 3169 3174 3177 3181 3187 3193 3193 3196 3198 3201 3203 3205 3207 3209 3211 3212 3214 3215 3215 3211 3217 3218 3219 3218 3218 3218 3218 3217 3216 3215 3214 3214 3213
3160 3155 3155 3156 3156 3158 3160 3161 3163 3165 3166 3166 3167 3164 3166 3168 3171 3175 3178 3182 3187 3193 3196 3198 3199 3202 3204 3206 3208 3210 3212 3213 3215 3216 3215 3207 3217 3219 3220 3220 3220 3219 3219 3217 3215 3213 3215 3214 3214
3160 3160 3154 3159 3158 3159 3160 3162 3165 3166 3168 3168 3166 3166 3168 3170 3173 3176 3180 3184 3188 3195 3199 3201 3199 3202 3204 3207 3209 3211 3213 3214 3216 3216 3214 3213 3219 3221 3221 3221 3221 3220 3219 3215 3211 3210 3215 3218 3221
3157 3158 3154 3157 3160 3160 3161 3161 3165 3167 3168 3169 3166 3167 3169 3172 3175 3177 3181 3185 3189 3195 3199 3201 3200 3202 3204 3207 3210 3212 3215 3216 3217 3218 3219 3220 3218 3223 3214 3221 3222 3222 3221 3217 3216 3214 3216 3216 3216
3156 3156 3157 3158 3161 3162 3162 3163 3163 3168 3169 3169 3167 3168 3170 3173 3176 3182 3185 3188 3191 3193 3198 3200 3199 3202 3204 3207 3209 3215 3216 3216 3219 3219 3220 3221 3220 3223 3223 3224 3224 3223 3222 3221 3219 3218 3218 3218 3217
3155 3156 3157 3159 3161 3162 3164 3164 3166 3168 3169 3169 3168 3169 3171 3173 3177 3182 3186 3189 3192 3195 3197 3198 3199 3202 3205 3207 3209 3212 3215 3217 3218 3219 3220 3221 3222 3223 3224 3224 3224 3223 3222 3222 3221 3220 3218 3216 3216
3153 3155 3156 3157 3159 3160 3162 3163 3164 3166 3167 3168 3167 3169 3171 3173 3177 3180 3184 3187 3190 3193 3195 3196 3198 3201 3204 3207 3210 3212 3214 3217 3218 3219 3220 3221 3222 3223 3223 3223 3224 3224 3222 3222 3221 3220 3218 3218 3217
3150 3152 3151 3153 3156 3158 3160 3157 3160 3163 3165 3167 3167 3167 3169 3171 3174 3177 3180 3184 3187 3190 3191 3194 3198 3200 3204 3207 3209 3211 3214 3216 3218 3219 3220 3221 3221 3222 3223 3223 3224 3224 3222 3221 3222 3220 3221 3221 3219
3143 3143 3146 3147 3150 3154 3157 3155 3157 3159 3163 3166 3167 3167 3168 3170 3173 3175 3178 3181 3184 3186 3188 3192 3196 3199 3202 3205 3208 3210 3213 3215 3217 3218 3219 3220 3220 3221 3223 3223 3221 3223 3220 3221 3221 3220 3221 3220 3219
3135 3138 3138 3142 3145 3149 3151 3153 3156 3156 3159 3163 3164 3166 3167 3168 3170 3172 3175 3178 3181 3183 3186 3190 3194 3197 3201 3203 3206 3209 3211 3214 3216 3217 3218 3218 3219 3220 3222 3223 3223 3223 3221 3222 3220 3221 3219 3218 3219
3133 3134 3135 3135 3139 3144 3146 3148 3151 3152 3156 3159 3161 3163 3164 3166 3169 3171 3172 3175 3178 3180 3183 3187 3190 3194 3198 3201 3204 3207 3210 3212 3214 3216 3217 3217 3218 3220 3221 3222 3223 3223 3221 3222 3222 3221 3220 3219 3218
3129 3129 3130 3133 3135 3140 3141 3143 3146 3148 3150 3155 3157 3159 3161 3165 3167 3167 3169 3172 3174 3177 3180 3184 3187 3191 3195 3199 3202 3205 3208 3210 3212 3214 3215 3216 3217 3219 3220 3221 3221 3222 3223 3222 3222 3219 3219 3219 3219
3122 3124 3126 3129 3133 3135 3139 3140 3141 3143 3146 3150 3153 3156 3158 3160 3161 3161 3164 3167 3170 3173 3176 3180 3184 3188 3192 3196 3199 3202 3205 3208 3210 3212 3213 3215 3216 3217 3219 3220 3221 3221 3222 3221 3221 3221 3221 3222 3221
3114 3121 3125 3128 3128 3126 3133 3132 3134 3138 3140 3144 3148 3151 3153 3156 3159 3159 3160 3163 3167 3169 3173 3176 3181 3185 3189 3192 3196 3199 3203 3206 3209 3210 3211 3213 3214 3216 3217 3218 3220 3221 3223 3222 3222 3222 3222 3222 3221
3110 3117 3121 3125 3126 3127 3123 3125 3122 3127 3131 3136 3142 3145 3149 3152 3154 3156 3155 3160 3164 3166 3169 3173 3177 3181 3185 3189 3193 3196 3200 3203 3206 3208 3210 3211 3212 3214 3215 3216 3218 3220 3222 3222 3222 3223 3223 3223 3222
3110 3114 3117 3120 3122 3114 3118 3120 3115 3116 3122 3127 3134 3139 3143 3147 3150 3152 3153 3157 3160 3163 3165 3167 3171 3176 3181 3185 3190 3193 3197 3200 3202 3205 3207 3209 3210 3211 3212 3213 3215 3218 3221 3222 3222 3223 3224 3224 3224
3102 3107 3108 3109 3104 3097 3111 3112 3108 3113 3117 3122 3127 3132 3138 3142 3145 3147 3150 3151 3155 3158 3161 3164 3168 3173 3178 3182 3186 3189 3193 3196 3200 3202 3204 3206 3207 3208 3209 3211 3213 3215 3218 3221 3222 3223 3224 3225 3225
3091 3095 3091 3092 3090 3094 3101 3093 3098 3108 3112 3115 3120 3126 3132 3136 3139 3143 3145 3147 3151 3155 3158 3161 3164 3169 3173 3178 3182 3186 3190 3193 3196 3198 3201 3203 3204 3206 3207 3208 3209 3212 3215 3218 3220 3221 3223 3224 3225
3083 3083 3087 3084 3083 3082 3082 3089 3096 3100 3103 3110 3113 3119 3124 3129 3134 3137 3140 3143 3146 3150 3154 3158 3161 3166 3169 3174 3178 3181 3185 3188 3191 3194 3197 3199 3201 3203 3204 3205 3207 3209 3211 3214 3217 3219 3221 3222 3223
3072 3082 3086 3082 3077 3075 3076 3077 3083 3090 3095 3100 3107 3112 3118 3123 3128 3131 3135 3138 3141 3145 3149 3154 3158 3161 3165 3169 3173 3177 3181 3184 3187 3190 3192 3195 3197 3200 3201 3202 3204 3206 3208 3210 3213 3215 3217 3220 3221
3065 3069 3077 3080 3077 3073 3075 3073 3075 3081 3088 3094 3100 3106 3112 3118 3122 3127 3129 3133 3136 3140 3144 3148 3152 3156 3160 3164 3167 3171 3174 3178 3182 3184 3188 3190 3194 3196 3197 3198 3200 3202 3204 3207 3209 3212 3213 3216 3217
3058 3062 3067 3068 3071 3074 3070 3070 3074 3077 3083 3088 3094 3100 3107 3113 3118 3123 3127 3131 3134 3134 3138 3141 3146 3150 3154 3158 3163 3166 3170 3173 3176 3178 3182 3186 3188 3191 3194 3194 3196 3197 3200 3202 3205 3207 3209 3211 3214